Back to catalog

COSMOS 2251 DEB

AliveLEO
NORAD 33928·DEBRIS·🇷🇺 Russia

Launched Jun 16, 1993 from Plesetsk Cosmodrome

Loading…

Next Passes (next 24 hours)

TLE

FreshSource: Space-Track

Epoch: Sep 14, 2026, 08:35 UTC

1 33928U 93036EH  26257.35792528  .00000456  00000-0  12813-3 0  9992
2 33928  73.9224 253.3931 0058974 129.3793 231.2611 14.47898519926332

Track COSMOS 2251 DEB in real time with AllMySat

Download on the App Store